STARLINK-34740

Last updated on Tue Aug 26 2025 00:02:05 GMT+0000 (Coordinated Universal Time)

1 64941U 25158K 25237.57198834 .00023517 00000+0 60286-3 0 9991 2 64941 97.6026 100.1174 0002190 98.2570 261.8923 15.39366653 5747
UTC large
Height (km)
Speed (km/s)
/
Latitude / Longitude
Inclination (degrees)
Orbital Period (minutes)
Azimuth
Elevation
Range (km)
Doppler Factor

Next 0 passes for location: London (51.5072 / 0.1276)

Sorry there are no passes over London.